| time (UTC) | temp C | wind direction | speed KPH | gust KPH | rain 1hr cm | rain 24hr cm | rain mn cm | humidity % | barometer mb |
| 20260903200546 | 26 | 183 | 4.8 | 9.7 | 0.00 | 0.03 | 0.00 | 84 | 1013.1 |
| 20260903200059 | 26 | 194 | 6.4 | 11.3 | 0.00 | 0.03 | 0.00 | 84 | 1013.0 |
| 20260903195545 | 26 | 182 | 6.4 | 11.3 | 0.00 | 0.03 | 0.00 | 84 | 1013.1 |
| 20260903195046 | 26 | 194 | 6.4 | 11.3 | 0.00 | 0.03 | 0.00 | 84 | 1013.0 |
| 20260903194605 | 26 | 191 | 6.4 | 11.3 | 0.00 | 0.03 | 0.00 | 86 | 1013.1 |
| 20260903194045 | 25 | 173 | 4.8 | 9.7 | 0.00 | 0.03 | 0.00 | 89 | 1013.3 |
| 20260903193545 | 25 | 191 | 3.2 | 6.4 | 0.00 | 0.03 | 0.00 | 92 | 1013.4 |
| 20260903193059 | 25 | 186 | 1.6 | 6.4 | 0.00 | 0.03 | 0.00 | 94 | 1013.4 |
| 20260903192547 | 25 | 171 | 0.0 | 3.2 | 0.00 | 0.03 | 0.00 | 95 | 1013.5 |
| 20260903192046 | 25 | 0 | 0.0 | 3.2 | 0.00 | 0.03 | 0.00 | 95 | 1013.5 |
| 20260903191559 | 25 | 0 | 0.0 | 3.2 | 0.00 | 0.03 | 0.00 | 95 | 1013.5 |
| 20260903191046 | 25 | 171 | 0.0 | 3.2 | 0.00 | 0.03 | 0.00 | 96 | 1013.4 |
| 20260903190546 | 25 | 0 | 0.0 | 1.6 | 0.00 | 0.03 | 0.00 | 97 | 1013.6 |
| 20260903190106 | 25 | 0 | 0.0 | 3.2 | 0.00 | 0.03 | 0.00 | 97 | 1013.8 |
| 20260903185546 | 24 | 0 | 0.0 | 3.2 | 0.00 | 0.03 | 0.00 | 97 | 1013.8 |
| 20260903185046 | 24 | 171 | 0.0 | 3.2 | 0.00 | 0.03 | 0.00 | 97 | 1013.5 |
| 20260903184604 | 24 | 171 | 0.0 | 3.2 | 0.00 | 0.03 | 0.00 | 97 | 1013.5 |
| 20260903184046 | 23 | 171 | 0.0 | 3.2 | 0.00 | 0.03 | 0.00 | 97 | 1013.6 |
| 20260903183545 | 23 | 0 | 0.0 | 1.6 | 0.00 | 0.03 | 0.00 | 97 | 1013.8 |
| 20260903183104 | 23 | 0 | 0.0 | 3.2 | 0.00 | 0.03 | 0.00 | 97 | 1014.0 |
| 20260903182548 | 23 | 171 | 0.0 | 3.2 | 0.00 | 0.03 | 0.00 | 96 | 1014.0 |
| 20260903182050 | 23 | 0 | 0.0 | 3.2 | 0.00 | 0.03 | 0.00 | 96 | 1014.1 |
| 20260903181600 | 23 | 171 | 0.0 | 6.4 | 0.00 | 0.03 | 0.00 | 96 | 1014.1 |
| 20260903181046 | 23 | 171 | 1.6 | 6.4 | 0.00 | 0.03 | 0.00 | 96 | 1014.1 |
| 20260903180546 | 22 | 179 | 0.0 | 6.4 | 0.00 | 0.03 | 0.00 | 96 | 1014.0 |
| 20260903180105 | 22 | 61 | 0.0 | 4.8 | 0.00 | 0.03 | 0.00 | 96 | 1014.2 |
| 20260903175547 | 22 | 0 | 0.0 | 4.8 | 0.00 | 0.03 | 0.00 | 95 | 1014.1 |
| 20260903175046 | 22 | 57 | 0.0 | 4.8 | 0.00 | 0.03 | 0.00 | 95 | 1014.0 |
| 20260903174601 | 22 | 5 | 0.0 | 4.8 | 0.00 | 0.03 | 0.00 | 95 | 1014.3 |
| 20260903174045 | 22 | 22 | 0.0 | 4.8 | 0.00 | 0.03 | 0.00 | 95 | 1014.0 |
| 20260903173546 | 22 | 17 | 0.0 | 3.2 | 0.00 | 0.03 | 0.00 | 95 | 1013.8 |
| 20260903173106 | 22 | 0 | 0.0 | 3.2 | 0.00 | 0.03 | 0.00 | 95 | 1013.6 |
| 20260903172546 | 22 | 0 | 0.0 | 3.2 | 0.00 | 0.03 | 0.00 | 95 | 1013.3 |
| 20260903172045 | 22 | 0 | 0.0 | 6.4 | 0.00 | 0.03 | 0.00 | 94 | 1013.4 |
| 20260903171604 | 21 | 0 | 0.0 | 6.4 | 0.00 | 0.03 | 0.00 | 94 | 1013.4 |
| 20260903171047 | 21 | 0 | 0.0 | 0.0 | 0.00 | 0.03 | 0.00 | 94 | 1013.6 |
| 20260903170546 | 21 | 0 | 0.0 | 3.2 | 0.00 | 0.03 | 0.00 | 93 | 1013.9 |
| 20260903170108 | 21 | 0 | 0.0 | 3.2 | 0.00 | 0.03 | 0.00 | 93 | 1014.9 |
| 20260903165546 | 21 | 0 | 0.0 | 1.6 | 0.00 | 0.03 | 0.00 | 93 | 1015.2 |
| 20260903165046 | 21 | 0 | 0.0 | 1.6 | 0.00 | 0.03 | 0.00 | 93 | 1015.5 |
| 20260903164559 | 21 | 161 | 0.0 | 1.6 | 0.00 | 0.03 | 0.00 | 92 | 1015.7 |
| 20260903164046 | 21 | 0 | 0.0 | 0.0 | 0.00 | 0.03 | 0.00 | 92 | 1016.0 |
| 20260903163544 | 21 | 0 | 0.0 | 0.0 | 0.00 | 0.03 | 0.00 | 92 | 1016.3 |
| 20260903163056 | 21 | 0 | 0.0 | 1.6 | 0.00 | 0.03 | 0.00 | 92 | 1016.5 |
| 20260903162546 | 22 | 0 | 0.0 | 11.3 | 0.00 | 0.03 | 0.00 | 92 | 1016.6 |
| 20260903162045 | 22 | 0 | 1.6 | 19.3 | 0.00 | 0.03 | 0.00 | 92 | 1016.9 |
| 20260903161603 | 22 | 182 | 11.3 | 19.3 | 0.00 | 0.03 | 0.00 | 92 | 1017.4 |
| 20260903161046 | 22 | 192 | 6.4 | 11.3 | 0.00 | 0.03 | 0.00 | 91 | 1017.5 |
| 20260903160546 | 21 | 184 | 0.0 | 3.2 | 0.00 | 0.03 | 0.00 | 89 | 1017.2 |
| 20260903160107 | 22 | 0 | 0.0 | 6.4 | 0.00 | 0.03 | 0.00 | 88 | 1017.0 |
| 20260903155546 | 22 | 0 | 0.0 | 16.1 | 0.00 | 0.03 | 0.00 | 87 | 1016.6 |
| 20260903155046 | 22 | 0 | 1.6 | 16.1 | 0.00 | 0.03 | 0.00 | 87 | 1016.3 |
| 20260903154605 | 22 | 84 | 4.8 | 16.1 | 0.00 | 0.03 | 0.00 | 85 | 1016.0 |
| 20260903154046 | 22 | 37 | 0.0 | 8.0 | 0.00 | 0.03 | 0.00 | 83 | 1016.4 |
| 20260903153546 | 22 | 0 | 3.2 | 8.0 | 0.00 | 0.03 | 0.00 | 83 | 1016.2 |
| 20260903153103 | 23 | 40 | 3.2 | 6.4 | 0.00 | 0.03 | 0.00 | 81 | 1015.3 |
| 20260903152546 | 23 | 40 | 1.6 | 9.7 | 0.00 | 0.03 | 0.00 | 80 | 1015.5 |
| 20260903152045 | 23 | 0 | 0.0 | 11.3 | 0.00 | 0.03 | 0.00 | 78 | 1015.9 |
| 20260903151600 | 23 | 0 | 1.6 | 11.3 | 0.00 | 0.03 | 0.00 | 77 | 1015.8 |
| 20260903151045 | 23 | 0 | 1.6 | 6.4 | 0.00 | 0.03 | 0.00 | 76 | 1015.6 |
| 20260903150546 | 23 | 54 | 1.6 | 4.8 | 0.00 | 0.03 | 0.00 | 76 | 1015.7 |
| 20260903150118 | 23 | 0 | 0.0 | 6.4 | 0.00 | 0.03 | 0.00 | 76 | 1015.2 |
| 20260903145546 | 23 | 15 | 0.0 | 6.4 | 0.00 | 0.03 | 0.00 | 76 | 1014.7 |
| 20260903145047 | 23 | 5 | 0.0 | 6.4 | 0.00 | 0.03 | 0.00 | 76 | 1014.9 |
| 20260903144606 | 23 | 0 | 1.6 | 6.4 | 0.00 | 0.03 | 0.00 | 76 | 1014.9 |
| 20260903144047 | 23 | 350 | 1.6 | 6.4 | 0.00 | 0.03 | 0.00 | 76 | 1014.9 |
| 20260903143545 | 23 | 51 | 0.0 | 8.0 | 0.00 | 0.03 | 0.00 | 76 | 1014.9 |
| 20260903143105 | 23 | 5 | 1.6 | 9.7 | 0.00 | 0.03 | 0.00 | 76 | 1015.0 |
| 20260903142549 | 23 | 313 | 3.2 | 12.9 | 0.00 | 0.03 | 0.00 | 76 | 1014.8 |
| 20260903142046 | 23 | 36 | 3.2 | 12.9 | 0.00 | 0.03 | 0.00 | 77 | 1014.7 |
| 20260903141559 | 23 | 0 | 1.6 | 12.9 | 0.00 | 0.03 | 0.00 | 78 | 1015.0 |
| 20260903141049 | 23 | 0 | 1.6 | 8.0 | 0.00 | 0.03 | 0.00 | 78 | 1014.9 |
| 20260903140547 | 23 | 0 | 0.0 | 11.3 | 0.00 | 0.03 | 0.00 | 80 | 1014.9 |
| 20260903140114 | 23 | 21 | 1.6 | 11.3 | 0.00 | 0.03 | 0.00 | 82 | 1014.8 |
| 20260903135547 | 23 | 355 | 3.2 | 12.9 | 0.00 | 0.03 | 0.00 | 87 | 1014.8 |
| 20260903135046 | 23 | 0 | 3.2 | 12.9 | 0.00 | 0.03 | 0.00 | 91 | 1014.9 |
| 20260903134610 | 23 | 44 | 1.6 | 8.0 | 0.00 | 0.03 | 0.00 | 94 | 1015.0 |
| 20260903134047 | 23 | 22 | 3.2 | 9.7 | 0.00 | 0.03 | 0.00 | 95 | 1014.6 |
| 20260903133547 | 23 | 0 | 1.6 | 11.3 | 0.00 | 0.03 | 0.00 | 95 | 1014.6 |
| 20260903133108 | 23 | 26 | 4.8 | 11.3 | 0.00 | 0.03 | 0.00 | 96 | 1014.5 |
| 20260903132548 | 23 | 0 | 0.0 | 1.6 | 0.00 | 0.03 | 0.00 | 96 | 1013.9 |
| 20260903132045 | 23 | 0 | 0.0 | 0.0 | 0.00 | 0.03 | 0.00 | 96 | 1013.4 |
| 20260903131601 | 23 | 0 | 0.0 | 0.0 | 0.00 | 0.03 | 0.00 | 96 | 1013.2 |
| 20260903131045 | 23 | 0 | 0.0 | 0.0 | 0.00 | 0.03 | 0.00 | 96 | 1013.1 |
| 20260903130545 | 23 | 0 | 0.0 | 1.6 | 0.00 | 0.03 | 0.00 | 96 | 1013.1 |
| 20260903125546 | 23 | 0 | 0.0 | 6.4 | 0.00 | 0.03 | 0.00 | 96 | 1012.8 |
| 20260903125046 | 23 | 188 | 3.2 | 6.4 | 0.00 | 0.03 | 0.00 | 96 | 1012.8 |
| 20260903124557 | 23 | 188 | 0.0 | 3.2 | 0.00 | 0.03 | 0.00 | 95 | 1012.8 |
| 20260903124045 | 23 | 0 | 0.0 | 1.6 | 0.00 | 0.03 | 0.00 | 95 | 1012.8 |
| 20260903123549 | 23 | 0 | 0.0 | 1.6 | 0.00 | 0.03 | 0.00 | 95 | 1012.9 |
| 20260903123101 | 23 | 0 | 0.0 | 1.6 | 0.00 | 0.03 | 0.00 | 95 | 1012.9 |
| 20260903122546 | 22 | 0 | 0.0 | 1.6 | 0.00 | 0.03 | 0.00 | 95 | 1012.8 |
| 20260903122046 | 22 | 0 | 0.0 | 1.6 | 0.00 | 0.03 | 0.00 | 95 | 1013.0 |
| 20260903121558 | 22 | 0 | 0.0 | 0.0 | 0.00 | 0.03 | 0.00 | 95 | 1012.9 |
| 20260903121046 | 22 | 0 | 0.0 | 0.0 | 0.00 | 0.03 | 0.00 | 94 | 1012.9 |
| 20260903120545 | 22 | 0 | 0.0 | 0.0 | 0.00 | 0.03 | 0.00 | 94 | 1013.0 |
| 20260903120106 | 22 | 0 | 0.0 | 0.0 | 0.00 | 0.03 | 0.00 | 94 | 1012.9 |
| 20260903115546 | 22 | 0 | 0.0 | 0.0 | 0.00 | 0.03 | 0.00 | 94 | 1013.0 |
| 20260903115049 | 22 | 0 | 0.0 | 0.0 | 0.00 | 0.03 | 0.00 | 94 | 1013.0 |
| 20260903114558 | 22 | 0 | 0.0 | 0.0 | 0.00 | 0.03 | 0.00 | 94 | 1013.0 |
| 20260903114045 | 22 | 0 | 0.0 | 0.0 | 0.00 | 0.03 | 0.00 | 94 | 1013.0 |
| 20260903113550 | 22 | 0 | 0.0 | 0.0 | 0.00 | 0.03 | 0.00 | 94 | 1013.1 |
| 20260903113056 | 22 | 0 | 0.0 | 0.0 | 0.00 | 0.03 | 0.00 | 94 | 1013.1 |
| 20260903112548 | 22 | 0 | 0.0 | 0.0 | 0.00 | 0.03 | 0.00 | 94 | 1013.1 |
| 20260903112045 | 22 | 0 | 0.0 | 0.0 | 0.00 | 0.03 | 0.00 | 94 | 1013.0 |
| 20260903111558 | 22 | 0 | 0.0 | 0.0 | 0.00 | 0.03 | 0.00 | 94 | 1013.0 |
| 20260903111046 | 22 | 0 | 0.0 | 0.0 | 0.00 | 0.03 | 0.00 | 94 | 1012.9 |
| 20260903110546 | 22 | 0 | 0.0 | 0.0 | 0.00 | 0.03 | 0.00 | 94 | 1013.0 |
| 20260903105547 | 22 | 0 | 0.0 | 0.0 | 0.00 | 0.03 | 0.00 | 94 | 1013.0 |
| 20260903105048 | 22 | 0 | 0.0 | 0.0 | 0.00 | 0.03 | 0.00 | 94 | 1012.9 |
| 20260903104559 | 22 | 0 | 0.0 | 0.0 | 0.00 | 0.03 | 0.00 | 94 | 1013.0 |
| 20260903104045 | 22 | 0 | 0.0 | 0.0 | 0.00 | 0.03 | 0.00 | 94 | 1012.9 |
| 20260903103546 | 22 | 0 | 0.0 | 0.0 | 0.00 | 0.03 | 0.00 | 94 | 1012.9 |
| 20260903103105 | 22 | 0 | 0.0 | 0.0 | 0.00 | 0.03 | 0.00 | 94 | 1013.0 |
| 20260903102546 | 22 | 0 | 0.0 | 0.0 | 0.00 | 0.03 | 0.00 | 94 | 1012.9 |
| 20260903102050 | 23 | 0 | 0.0 | 0.0 | 0.00 | 0.03 | 0.00 | 94 | 1013.0 |
| 20260903101603 | 23 | 0 | 0.0 | 0.0 | 0.00 | 0.03 | 0.00 | 94 | 1013.0 |
| 20260903101045 | 23 | 0 | 0.0 | 0.0 | 0.00 | 0.03 | 0.00 | 94 | 1013.0 |
| 20260903100545 | 23 | 0 | 0.0 | 0.0 | 0.00 | 0.03 | 0.00 | 94 | 1013.0 |
| 20260903095545 | 23 | 0 | 0.0 | 0.0 | 0.00 | 0.03 | 0.00 | 94 | 1013.0 |
| 20260903095046 | 23 | 0 | 0.0 | 0.0 | 0.00 | 0.03 | 0.00 | 94 | 1013.1 |
| 20260903094608 | 23 | 0 | 0.0 | 0.0 | 0.00 | 0.03 | 0.00 | 94 | 1013.2 |
| 20260903094045 | 23 | 0 | 0.0 | 0.0 | 0.00 | 0.03 | 0.00 | 94 | 1013.2 |
| 20260903093545 | 23 | 0 | 0.0 | 0.0 | 0.00 | 0.03 | 0.00 | 94 | 1013.1 |
| 20260903093129 | 23 | 0 | 0.0 | 0.0 | 0.00 | 0.03 | 0.00 | 94 | 1013.1 |
| 20260903092546 | 23 | 0 | 0.0 | 0.0 | 0.00 | 0.03 | 0.00 | 94 | 1013.1 |
| 20260903092046 | 23 | 0 | 0.0 | 0.0 | 0.00 | 0.03 | 0.00 | 94 | 1013.0 |
| 20260903091601 | 23 | 0 | 0.0 | 0.0 | 0.00 | 0.03 | 0.00 | 94 | 1013.0 |
| 20260903091046 | 23 | 0 | 0.0 | 0.0 | 0.00 | 0.03 | 0.00 | 95 | 1013.0 |
| 20260903090545 | 23 | 0 | 0.0 | 0.0 | 0.00 | 0.03 | 0.00 | 94 | 1013.0 |
| 20260903090058 | 23 | 0 | 0.0 | 0.0 | 0.00 | 0.03 | 0.00 | 94 | 1013.0 |
| 20260903085545 | 23 | 0 | 0.0 | 0.0 | 0.00 | 0.03 | 0.00 | 94 | 1013.0 |
| 20260903085046 | 23 | 0 | 0.0 | 0.0 | 0.00 | 0.03 | 0.00 | 94 | 1013.0 |
| 20260903084603 | 23 | 0 | 0.0 | 0.0 | 0.00 | 0.03 | 0.00 | 94 | 1013.0 |
| 20260903084047 | 23 | 0 | 0.0 | 0.0 | 0.00 | 0.03 | 0.00 | 94 | 1013.0 |
| 20260903083546 | 23 | 0 | 0.0 | 0.0 | 0.00 | 0.03 | 0.00 | 94 | 1013.0 |
| 20260903083102 | 23 | 0 | 0.0 | 0.0 | 0.00 | 0.03 | 0.00 | 94 | 1013.0 |
| 20260903082545 | 23 | 0 | 0.0 | 0.0 | 0.00 | 0.03 | 0.00 | 93 | 1013.1 |
| 20260903082045 | 23 | 0 | 0.0 | 0.0 | 0.00 | 0.03 | 0.00 | 93 | 1013.3 |
| 20260903081558 | 23 | 0 | 0.0 | 0.0 | 0.00 | 0.03 | 0.00 | 93 | 1013.1 |
| 20260903081046 | 23 | 0 | 0.0 | 0.0 | 0.00 | 0.03 | 0.00 | 93 | 1013.1 |
| 20260903080546 | 23 | 0 | 0.0 | 0.0 | 0.00 | 0.03 | 0.00 | 93 | 1013.1 |
| 20260903080110 | 23 | 0 | 0.0 | 0.0 | 0.00 | 0.03 | 0.00 | 93 | 1013.2 |
| 20260903075546 | 23 | 0 | 0.0 | 0.0 | 0.00 | 0.03 | 0.00 | 93 | 1013.1 |
| 20260903075045 | 23 | 0 | 0.0 | 0.0 | 0.00 | 0.03 | 0.00 | 93 | 1013.1 |
| 20260903074625 | 23 | 0 | 0.0 | 0.0 | 0.00 | 0.03 | 0.00 | 93 | 1013.1 |
| 20260903074046 | 23 | 0 | 0.0 | 0.0 | 0.00 | 0.03 | 0.00 | 93 | 1013.2 |
| 20260903073559 | 23 | 0 | 0.0 | 0.0 | 0.00 | 0.03 | 0.00 | 93 | 1013.0 |
| 20260903073110 | 23 | 0 | 0.0 | 0.0 | 0.00 | 0.03 | 0.00 | 93 | 1013.1 |
| 20260903072545 | 23 | 0 | 0.0 | 0.0 | 0.00 | 0.03 | 0.00 | 93 | 1013.1 |
| 20260903072045 | 23 | 0 | 0.0 | 0.0 | 0.00 | 0.03 | 0.00 | 93 | 1013.1 |
| 20260903071607 | 23 | 0 | 0.0 | 0.0 | 0.00 | 0.03 | 0.00 | 93 | 1013.0 |
| 20260903071046 | 23 | 0 | 0.0 | 0.0 | 0.00 | 0.03 | 0.00 | 93 | 1013.1 |
| 20260903070547 | 23 | 0 | 0.0 | 0.0 | 0.00 | 0.03 | 0.00 | 93 | 1013.1 |
| 20260903070057 | 23 | 0 | 0.0 | 0.0 | 0.00 | 0.03 | 0.00 | 93 | 1013.0 |
| 20260903065547 | 23 | 0 | 0.0 | 0.0 | 0.00 | 0.03 | 0.00 | 93 | 1013.0 |
| 20260903065046 | 23 | 0 | 0.0 | 0.0 | 0.00 | 0.03 | 0.00 | 93 | 1013.1 |
| 20260903064558 | 23 | 0 | 0.0 | 0.0 | 0.00 | 0.03 | 0.00 | 92 | 1013.3 |
| 20260903064045 | 23 | 0 | 0.0 | 0.0 | 0.00 | 0.03 | 0.00 | 92 | 1013.2 |
| 20260903063545 | 23 | 0 | 0.0 | 0.0 | 0.00 | 0.03 | 0.00 | 92 | 1013.4 |
| 20260903063057 | 23 | 0 | 0.0 | 0.0 | 0.00 | 0.03 | 0.00 | 92 | 1013.3 |
| 20260903062546 | 23 | 0 | 0.0 | 0.0 | 0.00 | 0.03 | 0.00 | 92 | 1013.4 |
| 20260903062045 | 23 | 0 | 0.0 | 0.0 | 0.00 | 0.03 | 0.00 | 92 | 1013.3 |
| 20260903061559 | 23 | 0 | 0.0 | 0.0 | 0.00 | 0.03 | 0.00 | 92 | 1013.4 |
| 20260903061045 | 23 | 0 | 0.0 | 0.0 | 0.00 | 0.03 | 0.00 | 91 | 1013.4 |
| 20260903060547 | 23 | 0 | 0.0 | 0.0 | 0.00 | 0.03 | 0.00 | 91 | 1013.3 |
| 20260903055546 | 23 | 0 | 0.0 | 0.0 | 0.00 | 0.03 | 0.00 | 91 | 1013.2 |
| 20260903055045 | 23 | 0 | 0.0 | 0.0 | 0.00 | 0.03 | 0.00 | 91 | 1013.3 |
| 20260903054601 | 23 | 0 | 0.0 | 0.0 | 0.00 | 0.03 | 0.00 | 91 | 1013.3 |
| 20260903054045 | 23 | 0 | 0.0 | 0.0 | 0.00 | 0.03 | 0.00 | 91 | 1013.3 |
| 20260903053544 | 23 | 0 | 0.0 | 0.0 | 0.00 | 0.03 | 0.00 | 91 | 1013.4 |
| 20260903053058 | 24 | 0 | 0.0 | 0.0 | 0.00 | 0.03 | 0.00 | 91 | 1013.3 |
| 20260903052547 | 24 | 0 | 0.0 | 0.0 | 0.00 | 0.03 | 0.00 | 91 | 1013.3 |
| 20260903052045 | 24 | 0 | 0.0 | 0.0 | 0.00 | 0.03 | 0.00 | 91 | 1013.3 |
| 20260903051601 | 24 | 0 | 0.0 | 0.0 | 0.00 | 0.03 | 0.00 | 91 | 1013.4 |
| 20260903051045 | 24 | 0 | 0.0 | 0.0 | 0.00 | 0.03 | 0.00 | 91 | 1013.4 |
| 20260903050545 | 24 | 0 | 0.0 | 0.0 | 0.00 | 0.03 | 0.00 | 91 | 1013.3 |
| 20260903050100 | 24 | 0 | 0.0 | 0.0 | 0.00 | 0.03 | 0.00 | 91 | 1013.3 |
| 20260903045545 | 24 | 0 | 0.0 | 0.0 | 0.00 | 0.03 | 0.03 | 90 | 1013.3 |
| 20260903045045 | 24 | 0 | 0.0 | 0.0 | 0.00 | 0.03 | 0.03 | 90 | 1013.3 |
| 20260903044557 | 25 | 0 | 0.0 | 0.0 | 0.00 | 0.03 | 0.03 | 90 | 1013.3 |
| 20260903044047 | 25 | 0 | 0.0 | 0.0 | 0.00 | 0.03 | 0.03 | 90 | 1013.2 |
| 20260903043545 | 25 | 0 | 0.0 | 0.0 | 0.00 | 0.03 | 0.03 | 90 | 1013.1 |
| 20260903043102 | 25 | 0 | 0.0 | 0.0 | 0.00 | 0.03 | 0.03 | 90 | 1013.1 |
| 20260903042547 | 25 | 0 | 0.0 | 0.0 | 0.00 | 0.03 | 0.03 | 90 | 1012.9 |
| 20260903042045 | 25 | 0 | 0.0 | 0.0 | 0.00 | 0.03 | 0.03 | 89 | 1012.8 |
| 20260903041556 | 25 | 0 | 0.0 | 0.0 | 0.00 | 0.03 | 0.03 | 89 | 1012.8 |
| 20260903041051 | 25 | 0 | 0.0 | 0.0 | 0.00 | 0.03 | 0.03 | 89 | 1012.7 |
| 20260903040545 | 25 | 0 | 0.0 | 0.0 | 0.00 | 0.03 | 0.03 | 89 | 1012.7 |
| 20260903040057 | 25 | 0 | 0.0 | 0.0 | 0.03 | 0.03 | 0.03 | 89 | 1012.8 |
| 20260903035545 | 25 | 0 | 0.0 | 0.0 | 0.03 | 0.03 | 0.03 | 89 | 1012.8 |
| 20260903035045 | 25 | 0 | 0.0 | 0.0 | 0.03 | 0.03 | 0.03 | 89 | 1012.8 |
| 20260903034606 | 25 | 0 | 0.0 | 0.0 | 0.03 | 0.03 | 0.03 | 89 | 1012.8 |
| 20260903034046 | 25 | 0 | 0.0 | 0.0 | 0.03 | 0.03 | 0.03 | 89 | 1012.8 |
| 20260903033545 | 25 | 0 | 0.0 | 0.0 | 0.03 | 0.03 | 0.03 | 89 | 1012.9 |
| 20260903033116 | 25 | 0 | 0.0 | 0.0 | 0.03 | 0.03 | 0.03 | 88 | 1012.9 |
| 20260903032546 | 25 | 0 | 0.0 | 0.0 | 0.03 | 0.03 | 0.03 | 88 | 1012.9 |
| 20260903032046 | 25 | 0 | 0.0 | 0.0 | 0.03 | 0.03 | 0.03 | 88 | 1013.0 |
| 20260903031635 | 25 | 0 | 0.0 | 0.0 | 0.03 | 0.03 | 0.03 | 88 | 1012.8 |
| 20260903031045 | 25 | 0 | 0.0 | 0.0 | 0.03 | 0.03 | 0.03 | 88 | 1012.9 |
| 20260903030546 | 25 | 0 | 0.0 | 0.0 | 0.03 | 0.03 | 0.03 | 88 | 1013.0 |
| 20260903025545 | 26 | 0 | 0.0 | 0.0 | 0.00 | 0.00 | 0.00 | 87 | 1013.0 |
| 20260903025046 | 26 | 0 | 0.0 | 0.0 | 0.00 | 0.00 | 0.00 | 87 | 1013.0 |
| 20260903024558 | 26 | 0 | 0.0 | 0.0 | 0.00 | 0.00 | 0.00 | 87 | 1013.0 |
| 20260903024045 | 26 | 0 | 0.0 | 0.0 | 0.00 | 0.00 | 0.00 | 87 | 1013.0 |
| 20260903023548 | 26 | 0 | 0.0 | 0.0 | 0.00 | 0.00 | 0.00 | 87 | 1013.0 |
| 20260903023107 | 26 | 0 | 0.0 | 0.0 | 0.00 | 0.00 | 0.00 | 87 | 1013.0 |
| 20260903022548 | 26 | 0 | 0.0 | 0.0 | 0.00 | 0.00 | 0.00 | 87 | 1013.0 |
| 20260903022045 | 26 | 0 | 0.0 | 0.0 | 0.00 | 0.00 | 0.00 | 87 | 1013.0 |
| 20260903021558 | 26 | 0 | 0.0 | 0.0 | 0.00 | 0.00 | 0.00 | 86 | 1012.9 |
| 20260903021045 | 26 | 0 | 0.0 | 0.0 | 0.00 | 0.00 | 0.00 | 86 | 1012.8 |
| 20260903020544 | 26 | 0 | 0.0 | 0.0 | 0.00 | 0.00 | 0.00 | 86 | 1013.0 |
| 20260903020055 | 26 | 0 | 0.0 | 0.0 | 0.00 | 0.00 | 0.00 | 86 | 1012.9 |
| 20260903015545 | 27 | 0 | 0.0 | 0.0 | 0.00 | 0.00 | 0.00 | 86 | 1012.8 |
| 20260903015047 | 27 | 0 | 0.0 | 0.0 | 0.00 | 0.00 | 0.00 | 85 | 1012.7 |
| 20260903014602 | 27 | 0 | 0.0 | 0.0 | 0.00 | 0.00 | 0.00 | 86 | 1012.7 |
| 20260903014046 | 27 | 0 | 0.0 | 0.0 | 0.00 | 0.00 | 0.00 | 86 | 1012.7 |
| 20260903013545 | 27 | 0 | 0.0 | 0.0 | 0.00 | 0.00 | 0.00 | 86 | 1012.7 |
| 20260903013056 | 27 | 0 | 0.0 | 0.0 | 0.00 | 0.00 | 0.00 | 85 | 1012.6 |
| 20260903012547 | 27 | 0 | 0.0 | 0.0 | 0.00 | 0.00 | 0.00 | 84 | 1012.5 |
| 20260903012045 | 27 | 0 | 0.0 | 0.0 | 0.00 | 0.00 | 0.00 | 82 | 1012.3 |
| 20260903011602 | 27 | 0 | 0.0 | 0.0 | 0.00 | 0.00 | 0.00 | 82 | 1012.3 |
| 20260903011048 | 28 | 0 | 0.0 | 0.0 | 0.00 | 0.00 | 0.00 | 82 | 1012.2 |
| 20260903010544 | 28 | 0 | 0.0 | 0.0 | 0.00 | 0.00 | 0.00 | 81 | 1012.2 |
| 20260903010105 | 28 | 0 | 0.0 | 0.0 | 0.00 | 0.00 | 0.00 | 81 | 1012.3 |
| 20260903005542 | 28 | 0 | 0.0 | 0.0 | 0.00 | 0.00 | 0.00 | 81 | 1012.1 |
| 20260903005042 | 28 | 0 | 0.0 | 0.0 | 0.00 | 0.00 | 0.00 | 80 | 1012.0 |
| 20260903004602 | 28 | 0 | 0.0 | 0.0 | 0.00 | 0.00 | 0.00 | 80 | 1012.0 |
| 20260903004045 | 28 | 0 | 0.0 | 0.0 | 0.00 | 0.00 | 0.00 | 80 | 1012.0 |
| 20260903003545 | 28 | 0 | 0.0 | 0.0 | 0.00 | 0.00 | 0.00 | 80 | 1012.0 |
| 20260903003103 | 29 | 0 | 0.0 | 0.0 | 0.00 | 0.00 | 0.00 | 79 | 1012.0 |
| 20260903002544 | 29 | 0 | 0.0 | 0.0 | 0.00 | 0.00 | 0.00 | 79 | 1012.0 |
| 20260903002044 | 29 | 0 | 0.0 | 0.0 | 0.00 | 0.00 | 0.00 | 79 | 1012.1 |
| 20260903001605 | 29 | 0 | 0.0 | 0.0 | 0.00 | 0.00 | 0.00 | 79 | 1012.0 |
| 20260903001043 | 29 | 0 | 0.0 | 0.0 | 0.00 | 0.00 | 0.00 | 79 | 1012.1 |
| 20260903000545 | 29 | 0 | 0.0 | 0.0 | 0.00 | 0.00 | 0.00 | 79 | 1012.1 |
| 20260903000100 | 30 | 0 | 0.0 | 0.0 | 0.00 | 0.00 | 0.00 | 79 | 1012.2 |
| 20260902235545 | 30 | 0 | 0.0 | 0.0 | 0.00 | 0.00 | 0.00 | 79 | 1012.2 |
| 20260902235047 | 30 | 0 | 0.0 | 0.0 | 0.00 | 0.00 | 0.00 | 79 | 1012.3 |
| 20260902234606 | 30 | 0 | 0.0 | 0.0 | 0.00 | 0.00 | 0.00 | 79 | 1012.2 |
| 20260902234044 | 30 | 0 | 0.0 | 0.0 | 0.00 | 0.00 | 0.00 | 79 | 1012.3 |
| 20260902233547 | 30 | 0 | 0.0 | 0.0 | 0.00 | 0.00 | 0.00 | 79 | 1012.3 |
| 20260902233102 | 30 | 0 | 0.0 | 0.0 | 0.00 | 0.00 | 0.00 | 79 | 1012.3 |
| 20260902232544 | 30 | 0 | 0.0 | 0.0 | 0.00 | 0.00 | 0.00 | 78 | 1012.1 |
| 20260902232043 | 30 | 0 | 0.0 | 0.0 | 0.00 | 0.00 | 0.00 | 78 | 1012.2 |
| 20260902231610 | 30 | 0 | 0.0 | 0.0 | 0.00 | 0.00 | 0.00 | 78 | 1012.2 |
| 20260902231047 | 30 | 0 | 0.0 | 0.0 | 0.00 | 0.00 | 0.00 | 77 | 1012.1 |
| 20260902230543 | 30 | 0 | 0.0 | 0.0 | 0.00 | 0.00 | 0.00 | 77 | 1012.1 |
| 20260902230059 | 30 | 0 | 0.0 | 0.0 | 0.00 | 0.00 | 0.00 | 76 | 1012.2 |
| 20260902225547 | 30 | 0 | 0.0 | 0.0 | 0.00 | 0.00 | 0.00 | 76 | 1012.2 |
| 20260902225043 | 30 | 0 | 0.0 | 0.0 | 0.00 | 0.00 | 0.00 | 75 | 1012.2 |
| 20260902224605 | 30 | 0 | 0.0 | 0.0 | 0.00 | 0.00 | 0.00 | 75 | 1012.3 |
| 20260902224042 | 31 | 0 | 0.0 | 0.0 | 0.00 | 0.00 | 0.00 | 74 | 1012.3 |
| 20260902223542 | 31 | 0 | 0.0 | 0.0 | 0.00 | 0.00 | 0.00 | 74 | 1012.2 |
| 20260902223101 | 31 | 0 | 0.0 | 0.0 | 0.00 | 0.00 | 0.00 | 73 | 1012.2 |
| 20260902222545 | 31 | 0 | 0.0 | 0.0 | 0.00 | 0.00 | 0.00 | 72 | 1012.3 |
| 20260902222043 | 31 | 0 | 0.0 | 0.0 | 0.00 | 0.00 | 0.00 | 72 | 1012.5 |
| 20260902221600 | 31 | 0 | 0.0 | 0.0 | 0.00 | 0.00 | 0.00 | 72 | 1012.6 |
| 20260902221043 | 31 | 0 | 0.0 | 0.0 | 0.00 | 0.00 | 0.00 | 72 | 1012.4 |
| 20260902220544 | 31 | 0 | 0.0 | 0.0 | 0.00 | 0.00 | 0.00 | 72 | 1012.3 |
| 20260902220100 | 31 | 0 | 0.0 | 0.0 | 0.00 | 0.00 | 0.00 | 71 | 1012.3 |
| 20260902215545 | 31 | 0 | 0.0 | 0.0 | 0.00 | 0.00 | 0.00 | 70 | 1012.3 |
| 20260902215042 | 31 | 0 | 0.0 | 0.0 | 0.00 | 0.00 | 0.00 | 71 | 1012.4 |
| 20260902214556 | 31 | 0 | 0.0 | 0.0 | 0.00 | 0.00 | 0.00 | 70 | 1012.3 |
| 20260902214041 | 31 | 0 | 0.0 | 0.0 | 0.00 | 0.00 | 0.00 | 70 | 1012.4 |
| 20260902213543 | 31 | 0 | 0.0 | 0.0 | 0.00 | 0.00 | 0.00 | 69 | 1012.4 |
| 20260902213105 | 31 | 0 | 0.0 | 0.0 | 0.00 | 0.00 | 0.00 | 69 | 1012.6 |
| 20260902212544 | 32 | 0 | 0.0 | 0.0 | 0.00 | 0.00 | 0.00 | 68 | 1012.5 |
| 20260902212048 | 32 | 0 | 0.0 | 0.0 | 0.00 | 0.00 | 0.00 | 67 | 1012.5 |
| 20260902211600 | 32 | 0 | 0.0 | 0.0 | 0.00 | 0.00 | 0.00 | 66 | 1012.6 |
| 20260902211042 | 32 | 0 | 0.0 | 0.0 | 0.00 | 0.00 | 0.00 | 66 | 1012.5 |
| 20260902210542 | 32 | 0 | 0.0 | 0.0 | 0.00 | 0.00 | 0.00 | 66 | 1012.6 |
| 20260902205541 | 32 | 0 | 0.0 | 0.0 | 0.00 | 0.00 | 0.00 | 65 | 1012.7 |
| 20260902205044 | 32 | 0 | 0.0 | 0.0 | 0.00 | 0.00 | 0.00 | 64 | 1012.7 |
| 20260902204602 | 33 | 0 | 0.0 | 0.0 | 0.00 | 0.00 | 0.00 | 64 | 1012.5 |
| 20260902204044 | 33 | 0 | 0.0 | 0.0 | 0.00 | 0.00 | 0.00 | 64 | 1012.5 |
| 20260902203544 | 32 | 0 | 0.0 | 0.0 | 0.00 | 0.00 | 0.00 | 65 | 1012.5 |
| 20260902203122 | 32 | 0 | 0.0 | 0.0 | 0.00 | 0.00 | 0.00 | 65 | 1012.5 |
| 20260902202543 | 32 | 0 | 0.0 | 0.0 | 0.00 | 0.00 | 0.00 | 65 | 1012.4 |
| 20260902202043 | 32 | 0 | 0.0 | 0.0 | 0.00 | 0.00 | 0.00 | 64 | 1012.5 |
| 20260902201554 | 32 | 0 | 0.0 | 0.0 | 0.00 | 0.00 | 0.00 | 64 | 1012.5 |
| 20260902201042 | 32 | 0 | 0.0 | 0.0 | 0.00 | 0.00 | 0.00 | 65 | 1012.5 |